When you browse on this site, cookies collect data to enhance your experience and personalize the content and advertising you see.
Visit our Privacy Policy to learn more. By continuing to use the site, you agree to this use of cookies and data.
  • In Portugal
  • List of Countries
  • For 7 days
  • Water Temperature
  • Satellite Maps
  • Weather Map
  • Weather Widgets
  • user-avatar
    Login

    Hourly Weather Porto-Novo

    Today, 25 May, Saturday

    Time Temperature Precipitation Wind Pressure Humidity
    00:00 +27°C° 0 mm 0 mps 757 mmHg 75%
    01:00 +29°C° 0 mm 1 mps 757 mmHg 75%
    02:00 +29°C° 0 mm 1 mps 757 mmHg 76%
    03:00 +29°C° 0 mm 1 mps 757 mmHg 76%
    04:00 +29°C° 0 mm 1 mps 757 mmHg 76%
    05:00 +29°C° 0 mm 1 mps 757 mmHg 76%
    06:00 +29°C° 0 mm 1 mps 757 mmHg 77%
    07:00 +31°C° 0 mm 1 mps 757 mmHg 67%
    08:00 +34°C° 0 mm 2 mps 757 mmHg 58%
    09:00 +36°C° 0 mm 2 mps 757 mmHg 49%
    10:00 +37°C° 0 mm 3 mps 757 mmHg 47%
    11:00 +38°C° 0 mm 3 mps 757 mmHg 45%
    12:00 +40°C° 0 mm 4 mps 756 mmHg 42%
    13:00 +38°C° 0 mm 4 mps 756 mmHg 45%
    14:00 +39°C° 0 mm 5 mps 755 mmHg 47%
    15:00 +37°C° 0 mm 5 mps 755 mmHg 49%
    16:00 +36°C° 0 mm 5 mps 755 mmHg 56%
    17:00 +34°C° 0 mm 5 mps 755 mmHg 63%
    18:00 +33°C° 0 mm 5 mps 755 mmHg 70%
    19:00 +32°C° 0 mm 5 mps 756 mmHg 72%
    20:00 +32°C° 0 mm 5 mps 756 mmHg 75%
    21:00 +32°C° 0 mm 5 mps 757 mmHg 78%
    22:00 +30°C° 0 mm 5 mps 757 mmHg 78%
    23:00 +30°C° 0 mm 5 mps 757 mmHg 78%

    Tomorrow, 26 May, Sunday

    Time Temperature Precipitation Wind Pressure Humidity
    00:00 +30°C° 0 mm 5 mps 757 mmHg 79%
    01:00 +30°C° 0.1 mm 5 mps 756 mmHg 79%
    02:00 +30°C° 0.1 mm 5 mps 756 mmHg 80%
    03:00 +30°C° 0.1 mm 4 mps 756 mmHg 81%
    04:00 +29°C° 2.7 mm 4 mps 756 mmHg 83%
    05:00 +29°C° 2.7 mm 4 mps 757 mmHg 85%
    06:00 +28°C° 2.7 mm 4 mps 757 mmHg 87%
    07:00 +29°C° 1.5 mm 3 mps 757 mmHg 86%
    08:00 +29°C° 1.5 mm 3 mps 758 mmHg 85%
    09:00 +29°C° 1.5 mm 3 mps 758 mmHg 84%
    10:00 +30°C° 0.1 mm 3 mps 758 mmHg 79%
    11:00 +31°C° 0.1 mm 3 mps 757 mmHg 74%
    12:00 +33°C° 0.1 mm 3 mps 757 mmHg 69%
    13:00 +33°C° 0.2 mm 4 mps 756 mmHg 71%
    14:00 +33°C° 0.2 mm 4 mps 756 mmHg 72%
    15:00 +32°C° 0.2 mm 4 mps 755 mmHg 74%
    16:00 +32°C° 0 mm 4 mps 755 mmHg 75%
    17:00 +32°C° 0 mm 4 mps 755 mmHg 75%
    18:00 +30°C° 0 mm 4 mps 755 mmHg 76%
    19:00 +30°C° 0 mm 4 mps 756 mmHg 77%
    20:00 +30°C° 0 mm 4 mps 757 mmHg 78%
    21:00 +30°C° 0 mm 3 mps 757 mmHg 79%
    22:00 +30°C° 0 mm 4 mps 757 mmHg 79%
    23:00 +30°C° 0 mm 4 mps 757 mmHg 80%

    Day after tomorrow, 27 May, Monday

    Time Temperature Precipitation Wind Pressure Humidity
    00:00 +30°C° 0 mm 4 mps 757 mmHg 81%
    01:00 +30°C° 0.5 mm 4 mps 757 mmHg 82%
    02:00 +29°C° 0.5 mm 4 mps 756 mmHg 83%
    03:00 +29°C° 0.5 mm 4 mps 756 mmHg 84%
    04:00 +29°C° 0.5 mm 4 mps 756 mmHg 84%
    05:00 +29°C° 0.5 mm 4 mps 756 mmHg 84%
    06:00 +29°C° 0.5 mm 4 mps 756 mmHg 84%
    07:00 +30°C° 0 mm 4 mps 757 mmHg 81%
    08:00 +30°C° 0 mm 4 mps 757 mmHg 78%
    09:00 +32°C° 0 mm 4 mps 758 mmHg 75%
    10:00 +33°C° 0 mm 5 mps 757 mmHg 69%
    11:00 +34°C° 0 mm 5 mps 757 mmHg 63%
    12:00 +36°C° 0 mm 5 mps 756 mmHg 57%
    13:00 +36°C° 0 mm 5 mps 756 mmHg 57%
    14:00 +35°C° 0 mm 6 mps 755 mmHg 58%
    15:00 +35°C° 0 mm 6 mps 755 mmHg 58%
    16:00 +34°C° 0 mm 5 mps 755 mmHg 63%
    17:00 +33°C° 0 mm 5 mps 755 mmHg 68%
    18:00 +32°C° 0 mm 5 mps 756 mmHg 74%
    19:00 +30°C° 0 mm 5 mps 756 mmHg 75%
    20:00 +30°C° 0 mm 5 mps 757 mmHg 77%
    21:00 +30°C° 0 mm 5 mps 757 mmHg 78%
    22:00 +30°C° 0 mm 5 mps 757 mmHg 79%
    23:00 +30°C° 0 mm 4 mps 757 mmHg 80%

    28 May, Tuesday

    Time Temperature Precipitation Wind Pressure Humidity
    00:00 +29°C° 0 mm 4 mps 757 mmHg 80%
    01:00 +29°C° 0 mm 4 mps 757 mmHg 80%
    02:00 +29°C° 0 mm 4 mps 756 mmHg 80%
    03:00 +29°C° 0 mm 4 mps 756 mmHg 80%
    04:00 +29°C° 0 mm 4 mps 756 mmHg 80%
    05:00 +29°C° 0 mm 4 mps 756 mmHg 80%
    06:00 +29°C° 0 mm 4 mps 756 mmHg 81%
    07:00 +30°C° 0.6 mm 4 mps 757 mmHg 75%
    08:00 +32°C° 0.6 mm 4 mps 757 mmHg 70%
    09:00 +34°C° 0.6 mm 3 mps 758 mmHg 65%
    10:00 +34°C° 1.3 mm 4 mps 758 mmHg 64%
    11:00 +34°C° 1.3 mm 4 mps 757 mmHg 64%
    12:00 +34°C° 1.3 mm 4 mps 757 mmHg 63%
    13:00 +34°C° 0 mm 5 mps 757 mmHg 62%
    14:00 +34°C° 0 mm 5 mps 756 mmHg 61%
    15:00 +34°C° 0 mm 5 mps 755 mmHg 60%
    16:00 +33°C° 0 mm 5 mps 756 mmHg 65%
    17:00 +32°C° 0 mm 4 mps 756 mmHg 70%
    18:00 +30°C° 0 mm 4 mps 756 mmHg 74%
    19:00 +30°C° 0 mm 4 mps 757 mmHg 76%
    20:00 +30°C° 0 mm 4 mps 757 mmHg 77%
    21:00 +29°C° 0 mm 4 mps 757 mmHg 79%
    22:00 +29°C° 0 mm 4 mps 757 mmHg 79%
    23:00 +29°C° 0 mm 4 mps 757 mmHg 79%

    29 May, Wednesday

    Time Temperature Precipitation Wind Pressure Humidity
    00:00 +29°C° 0 mm 4 mps 757 mmHg 80%
    01:00 +29°C° 0 mm 4 mps 756 mmHg 81%
    02:00 +29°C° 0 mm 3 mps 756 mmHg 82%
    03:00 +29°C° 0 mm 3 mps 755 mmHg 83%
    04:00 +29°C° 0 mm 3 mps 756 mmHg 83%
    05:00 +29°C° 0 mm 3 mps 756 mmHg 84%
    06:00 +29°C° 0 mm 3 mps 757 mmHg 84%
    07:00 +30°C° 0 mm 3 mps 757 mmHg 80%
    08:00 +31°C° 0 mm 3 mps 758 mmHg 75%
    09:00 +33°C° 0 mm 4 mps 758 mmHg 71%
    10:00 +34°C° 0 mm 4 mps 757 mmHg 66%
    11:00 +35°C° 0 mm 4 mps 757 mmHg 61%
    12:00 +36°C° 0 mm 4 mps 756 mmHg 56%
    13:00 +35°C° 0 mm 4 mps 756 mmHg 57%
    14:00 +35°C° 0 mm 5 mps 755 mmHg 59%
    15:00 +35°C° 0 mm 5 mps 754 mmHg 60%
    16:00 +34°C° 0 mm 5 mps 755 mmHg 65%
    17:00 +33°C° 0 mm 4 mps 755 mmHg 70%
    18:00 +32°C° 0 mm 4 mps 756 mmHg 75%
    19:00 +30°C° 0 mm 4 mps 756 mmHg 77%
    20:00 +30°C° 0 mm 4 mps 757 mmHg 80%
    21:00 +30°C° 0 mm 4 mps 757 mmHg 82%
    22:00 +30°C° 0.1 mm 4 mps 757 mmHg 83%
    23:00 +29°C° 0.1 mm 4 mps 757 mmHg 84%

    30 May, Thursday

    Time Temperature Precipitation Wind Pressure Humidity
    00:00 +29°C° 0.1 mm 3 mps 756 mmHg 85%
    01:00 +29°C° 0 mm 3 mps 756 mmHg 85%
    02:00 +29°C° 0 mm 3 mps 756 mmHg 85%
    03:00 +29°C° 0 mm 3 mps 755 mmHg 86%
    04:00 +29°C° 0.6 mm 3 mps 756 mmHg 86%
    05:00 +29°C° 0.6 mm 2 mps 756 mmHg 87%
    06:00 +29°C° 0.6 mm 2 mps 757 mmHg 88%
    07:00 +30°C° 0 mm 2 mps 757 mmHg 82%
    08:00 +31°C° 0 mm 2 mps 757 mmHg 76%
    09:00 +33°C° 0 mm 3 mps 758 mmHg 71%
    10:00 +33°C° 0.9 mm 3 mps 757 mmHg 69%
    11:00 +34°C° 0.9 mm 3 mps 757 mmHg 66%
    12:00 +34°C° 0.9 mm 4 mps 756 mmHg 64%
    13:00 +34°C° 0.1 mm 4 mps 756 mmHg 64%
    14:00 +34°C° 0.1 mm 5 mps 755 mmHg 63%
    15:00 +34°C° 0.1 mm 5 mps 755 mmHg 63%
    16:00 +33°C° 0 mm 5 mps 755 mmHg 67%
    17:00 +32°C° 0 mm 5 mps 756 mmHg 71%
    18:00 +30°C° 0 mm 4 mps 756 mmHg 76%
    19:00 +30°C° 0 mm 4 mps 757 mmHg 77%
    20:00 +30°C° 0 mm 4 mps 757 mmHg 78%
    21:00 +29°C° 0 mm 3 mps 758 mmHg 79%
    22:00 +29°C° 0 mm 3 mps 757 mmHg 79%
    23:00 +29°C° 0 mm 4 mps 757 mmHg 79%
    Show more